Content
SEND FEEDBACK

Daily
Averages
Monthly
Summary
Philippines

QUEZON CITY, PHILIPPINES


Home > Asia > Philippines
Elevation: 46 meters     Latitude: 14 39N     Longitude: 121 03E

WEATHER
 
SELECT A DAY
Number of Records: 176,357;   Date Range: 7/1/96 - 9/30/14
 
SHARE

PRINT THIS DATA

[ ← Previous Day ]
WEATHER ALMANAC - 8 OCTOBER, 2013
[ Next Day → ]
[ °F ]   °C
We're sorry. There is no daily almanac available for Quezon City, Philippines on 8 October, 2013.
WEATHER BY HOUR - 8 OCTOBER, 2013
[ °F ]   °C
Local TimeTemperatureDewpointHumidityBarometerVisibilityWind DirectionWind SpeedGust SpeedPrecipitationEventsConditions
1:00 AM27 °C23 °C79 %1007.1 hPa10 kmVariable3.7 km/hPartly Cloudy
2:00 AM26 °C23 °C83 %1007.1 hPa10 kmCalmMostly Cloudy
3:00 AM26 °C24 °C89 %1006.1 hPa10 kmWSW (240°)1.9 km/hMostly Cloudy
4:00 AM26 °C25 °C94 %1006.1 hPa10 kmCalmScattered Clouds
5:00 AM26.1 °C24.4 °C88 %1007.5 hPa9.7 kmEast (100°)3.5 km/hHaze
5:00 AM26 °C25 °C94 %1007.1 hPa9 kmEast (100°)3.7 km/hPartly Cloudy
6:00 AM-17.8 °C25 °C1007.1 hPa9 kmVariable3.7 km/hScattered Clouds
7:00 AM27 °C25 °C89 %1008.1 hPa9 kmVariable3.7 km/hMostly Cloudy
8:00 AM28 °C25 °C84 %1008.1 hPa9 kmVariable5.6 km/hMostly Cloudy
9:00 AM29 °C25 °C79 %1008.1 hPa6.9 kmVariable7.4 km/hMostly Cloudy
10:00 AM29 °C25 °C79 %1008.1 hPa8 kmWest (270°)11.1 km/hOvercast
11:00 AM28.9 °C25.6 °C76 %1008.5 hPa8 kmWest (270°)18 km/hHaze
11:00 AM29 °C25 °C79 %1008.1 hPa8 kmWest (260°)16.7 km/hOvercast
12:00 PM28 °C25 °C84 %1007.1 hPa10 kmWSW (250°)14.8 km/hOvercast
1:00 PM28 °C25 °C84 %1007.1 hPa10 kmWSW (250°)16.7 km/hOvercast
2:00 PM28.3 °C23.3 °C67 %1006.8 hPa9.7 kmWSW (240°)18 km/hHaze
2:00 PM29 °C23 °C70 %1006.1 hPa10 kmWSW (250°)18.5 km/hMostly Cloudy
3:00 PM29 °C24 °C74 %1006.1 hPa9 kmWSW (240°)16.7 km/hMostly Cloudy
4:00 PM29 °C24 °C74 %1006.1 hPa8 kmWSW (250°)18.5 km/hRainLight Rain Showers
5:00 PM28.3 °C23.3 °C67 %1006.8 hPa8 kmWSW (240°)14.3 km/hRainLight Rain Showers
5:00 PM28 °C23 °C74 %1006.1 hPa8 kmWSW (240°)16.7 km/hMostly Cloudy
6:00 PM28 °C23 °C74 %1007.1 hPa9 kmSW (220°)9.3 km/hMostly Cloudy
7:00 PM28 °C24 °C79 %1008.1 hPa9 kmSW (220°)3.7 km/hMostly Cloudy
8:00 PM27.8 °C23.9 °C74 %1009.1 hPa8 kmEast (90°)7.2 km/hHaze
8:00 PM28 °C24 °C79 %1009.1 hPa8 kmEast (90°)3.7 km/hMostly Cloudy
9:00 PM26 °C24 °C89 %1009.1 hPa8 kmNNE (30°)5.6 km/hRainLight Rain Showers
10:00 PM27 °C24 °C84 %1009.1 hPa8 kmNNE (20°)7.4 km/hOvercast
11:00 PM27.2 °C23.3 °C75 %1009.8 hPa8 kmNNW (330°)10.8 km/hHaze
11:00 PM27 °C24 °C84 %1009.1 hPa8 kmNNW (330°)11.1 km/hMostly Cloudy
Hourly data recorded from RPLL, located 0 kilometers away from Quezon City, Philippines







STORIES FROM OUR PARTNERS